• In Czech Republic
  • List of Countries
  • For 7 days
  • Water Temperature
  • Satellite Maps
  • Weather Map
  • Weather Widgets
  • user-avatar
    Login

    Hourly Weather Drzyslaw

    Today, 19 July, Thursday

    Time Temperature Precipitation Wind Pressure Humidity
    00:00 +19°C° 0.4 mm 3 mps 755 mmHg 95%
    01:00 +19°C° 0.4 mm 3 mps 755 mmHg 95%
    02:00 +19°C° 0.7 mm 3 mps 755 mmHg 95%
    03:00 +19°C° 0.7 mm 4 mps 755 mmHg 96%
    04:00 +19°C° 0.7 mm 4 mps 755 mmHg 96%
    05:00 +19°C° 0.8 mm 4 mps 755 mmHg 95%
    06:00 +19°C° 0.8 mm 4 mps 755 mmHg 95%
    07:00 +19°C° 0.8 mm 4 mps 755 mmHg 94%
    08:00 +19°C° 0.4 mm 4 mps 756 mmHg 93%
    09:00 +20°C° 0.4 mm 5 mps 756 mmHg 92%
    10:00 +20°C° 0.4 mm 5 mps 756 mmHg 90%
    11:00 +21°C° 0.2 mm 5 mps 756 mmHg 85%
    12:00 +22°C° 0.2 mm 5 mps 756 mmHg 81%
    13:00 +23°C° 0.2 mm 6 mps 756 mmHg 76%
    14:00 +23°C° 0.1 mm 6 mps 756 mmHg 74%
    15:00 +23°C° 0.1 mm 6 mps 756 mmHg 72%
    16:00 +23°C° 0.1 mm 6 mps 756 mmHg 71%
    17:00 +22°C° 0 mm 5 mps 756 mmHg 72%
    18:00 +21°C° 0 mm 5 mps 756 mmHg 73%
    19:00 +20°C° 0 mm 4 mps 756 mmHg 74%
    20:00 +19°C° 0 mm 4 mps 756 mmHg 76%
    21:00 +18°C° 0 mm 4 mps 756 mmHg 77%
    22:00 +17°C° 0 mm 3 mps 757 mmHg 78%
    23:00 +17°C° 0 mm 3 mps 757 mmHg 79%

    Tomorrow, 20 July, Friday

    Time Temperature Precipitation Wind Pressure Humidity
    00:00 +17°C° 0 mm 3 mps 757 mmHg 80%
    01:00 +16°C° 0 mm 3 mps 757 mmHg 81%
    02:00 +16°C° 0 mm 3 mps 756 mmHg 83%
    03:00 +16°C° 0 mm 3 mps 756 mmHg 84%
    04:00 +14°C° 0 mm 3 mps 756 mmHg 85%
    05:00 +17°C° 0 mm 3 mps 756 mmHg 82%
    06:00 +18°C° 0 mm 3 mps 756 mmHg 79%
    07:00 +19°C° 0 mm 4 mps 756 mmHg 77%
    08:00 +20°C° 0 mm 4 mps 757 mmHg 72%
    09:00 +21°C° 0 mm 4 mps 757 mmHg 68%
    10:00 +22°C° 0 mm 4 mps 757 mmHg 64%
    11:00 +22°C° 0 mm 4 mps 757 mmHg 62%
    12:00 +22°C° 0 mm 4 mps 756 mmHg 60%
    13:00 +23°C° 0 mm 4 mps 756 mmHg 58%
    14:00 +22°C° 0 mm 4 mps 756 mmHg 58%
    15:00 +22°C° 0 mm 4 mps 756 mmHg 57%
    16:00 +22°C° 0 mm 4 mps 755 mmHg 57%
    17:00 +21°C° 0 mm 3 mps 755 mmHg 62%
    18:00 +20°C° 0 mm 3 mps 755 mmHg 67%
    19:00 +19°C° 0 mm 2 mps 755 mmHg 72%
    20:00 +18°C° 0 mm 2 mps 755 mmHg 76%
    21:00 +17°C° 0 mm 2 mps 755 mmHg 79%
    22:00 +15°C° 0 mm 2 mps 755 mmHg 82%
    23:00 +15°C° 0 mm 2 mps 755 mmHg 84%

    Day after tomorrow, 21 July, Saturday

    Time Temperature Precipitation Wind Pressure Humidity
    00:00 +15°C° 0 mm 2 mps 755 mmHg 85%
    01:00 +15°C° 0 mm 2 mps 755 mmHg 87%
    02:00 +15°C° 0 mm 2 mps 755 mmHg 87%
    03:00 +15°C° 0 mm 2 mps 755 mmHg 88%
    04:00 +15°C° 0 mm 2 mps 755 mmHg 89%
    05:00 +16°C° 0 mm 2 mps 755 mmHg 85%
    06:00 +17°C° 0 mm 2 mps 755 mmHg 81%
    07:00 +19°C° 0 mm 2 mps 755 mmHg 76%
    08:00 +20°C° 0 mm 2 mps 755 mmHg 72%
    09:00 +21°C° 0 mm 2 mps 755 mmHg 67%
    10:00 +22°C° 0 mm 3 mps 755 mmHg 62%
    11:00 +24°C° 0 mm 3 mps 755 mmHg 61%
    12:00 +24°C° 0 mm 3 mps 755 mmHg 59%
    13:00 +25°C° 0 mm 3 mps 755 mmHg 58%
    14:00 +25°C° 0 mm 3 mps 754 mmHg 57%
    15:00 +25°C° 0 mm 3 mps 754 mmHg 57%
    16:00 +25°C° 0 mm 3 mps 754 mmHg 57%
    17:00 +24°C° 0 mm 2 mps 754 mmHg 62%
    18:00 +23°C° 0 mm 2 mps 754 mmHg 67%
    19:00 +21°C° 0 mm 2 mps 754 mmHg 72%
    20:00 +20°C° 0 mm 1 mps 754 mmHg 75%
    21:00 +19°C° 0 mm 1 mps 754 mmHg 78%
    22:00 +18°C° 0 mm 1 mps 754 mmHg 80%
    23:00 +16°C° 0 mm 1 mps 754 mmHg 80%

    22 July, Sunday

    Time Temperature Precipitation Wind Pressure Humidity
    00:00 +16°C° 0 mm 1 mps 754 mmHg 80%
    01:00 +16°C° 0 mm 1 mps 754 mmHg 80%
    02:00 +15°C° 0 mm 1 mps 753 mmHg 80%
    03:00 +15°C° 0 mm 1 mps 753 mmHg 80%
    04:00 +15°C° 0 mm 1 mps 753 mmHg 80%
    05:00 +16°C° 0 mm 1 mps 753 mmHg 76%
    06:00 +19°C° 0 mm 1 mps 753 mmHg 72%
    07:00 +20°C° 0 mm 1 mps 754 mmHg 69%
    08:00 +22°C° 0 mm 1 mps 754 mmHg 64%
    09:00 +23°C° 0 mm 1 mps 754 mmHg 60%
    10:00 +25°C° 0 mm 1 mps 754 mmHg 56%
    11:00 +25°C° 0 mm 1 mps 754 mmHg 54%
    12:00 +26°C° 0 mm 1 mps 754 mmHg 52%
    13:00 +27°C° 0 mm 2 mps 754 mmHg 51%
    14:00 +26°C° 0.2 mm 2 mps 754 mmHg 54%
    15:00 +26°C° 0.2 mm 2 mps 754 mmHg 57%
    16:00 +26°C° 0.2 mm 2 mps 754 mmHg 60%
    17:00 +24°C° 0.3 mm 2 mps 754 mmHg 67%
    18:00 +23°C° 0.3 mm 2 mps 754 mmHg 74%
    19:00 +21°C° 0.3 mm 2 mps 754 mmHg 81%
    20:00 +20°C° 0.1 mm 2 mps 754 mmHg 84%
    21:00 +19°C° 0.1 mm 2 mps 754 mmHg 86%
    22:00 +18°C° 0.1 mm 2 mps 755 mmHg 88%
    23:00 +18°C° 0 mm 2 mps 755 mmHg 89%

    23 July, Monday

    Time Temperature Precipitation Wind Pressure Humidity
    00:00 +17°C° 0 mm 2 mps 755 mmHg 90%
    01:00 +17°C° 0 mm 2 mps 755 mmHg 91%
    02:00 +16°C° 0 mm 2 mps 755 mmHg 91%
    03:00 +16°C° 0 mm 3 mps 755 mmHg 91%
    04:00 +16°C° 0 mm 3 mps 755 mmHg 92%
    05:00 +17°C° 0 mm 3 mps 756 mmHg 89%
    06:00 +18°C° 0 mm 3 mps 756 mmHg 85%
    07:00 +19°C° 0 mm 3 mps 756 mmHg 82%
    08:00 +19°C° 0 mm 3 mps 756 mmHg 78%
    09:00 +20°C° 0 mm 4 mps 756 mmHg 74%
    10:00 +21°C° 0 mm 4 mps 756 mmHg 69%
    11:00 +21°C° 0 mm 4 mps 756 mmHg 69%
    12:00 +22°C° 0 mm 4 mps 756 mmHg 68%
    13:00 +22°C° 0 mm 4 mps 756 mmHg 68%
    14:00 +22°C° 0 mm 4 mps 756 mmHg 67%
    15:00 +22°C° 0 mm 4 mps 756 mmHg 67%
    16:00 +22°C° 0 mm 4 mps 756 mmHg 67%
    17:00 +22°C° 0 mm 3 mps 756 mmHg 71%
    18:00 +21°C° 0 mm 2 mps 756 mmHg 75%
    19:00 +21°C° 0 mm 2 mps 756 mmHg 78%
    20:00 +20°C° 0 mm 2 mps 756 mmHg 82%
    21:00 +19°C° 0 mm 2 mps 756 mmHg 85%
    22:00 +18°C° 0 mm 2 mps 757 mmHg 89%
    23:00 +18°C° 0 mm 2 mps 757 mmHg 90%

    24 July, Tuesday

    Time Temperature Precipitation Wind Pressure Humidity
    00:00 +18°C° 0 mm 2 mps 757 mmHg 91%
    01:00 +17°C° 0 mm 2 mps 757 mmHg 93%
    02:00 +17°C° 0 mm 2 mps 757 mmHg 94%
    03:00 +17°C° 0 mm 2 mps 757 mmHg 94%
    04:00 +17°C° 0 mm 2 mps 757 mmHg 95%
    05:00 +18°C° 0 mm 2 mps 757 mmHg 91%
    06:00 +19°C° 0 mm 2 mps 757 mmHg 88%
    07:00 +21°C° 0 mm 2 mps 757 mmHg 84%
    08:00 +23°C° 0 mm 2 mps 757 mmHg 80%
    09:00 +24°C° 0 mm 2 mps 757 mmHg 75%
    10:00 +25°C° 0 mm 2 mps 757 mmHg 70%
    11:00 +26°C° 0 mm 2 mps 757 mmHg 68%
    12:00 +26°C° 0 mm 3 mps 757 mmHg 66%
    13:00 +27°C° 0 mm 3 mps 757 mmHg 64%
    14:00 +27°C° 0 mm 3 mps 757 mmHg 64%
    15:00 +27°C° 0 mm 3 mps 757 mmHg 64%
    16:00 +27°C° 0 mm 3 mps 757 mmHg 64%
    17:00 +26°C° 0 mm 2 mps 757 mmHg 69%
    18:00 +25°C° 0 mm 2 mps 757 mmHg 73%
    19:00 +24°C° 0 mm 2 mps 757 mmHg 78%
    20:00 +23°C° 0 mm 2 mps 757 mmHg 81%
    21:00 +22°C° 0 mm 1 mps 758 mmHg 84%
    22:00 +20°C° 0 mm 1 mps 758 mmHg 87%
    23:00 +20°C° 0 mm 1 mps 758 mmHg 87%
    Show more